This is the latest recevied weather packets stored in our database for station/object KE8GJZ-2. If no packets are shown the sender has not sent any weather packets the latest 10 day(s).
| Time | Temp. | Humidity | Pressure | Rain* | Wind** | Luminosity | Snow |
|---|---|---|---|---|---|---|---|
| 1778147447 | 3.33° C | 83% | 1014.3 hPa | 0 mm | - | 0 W/m² | - |
| 1778147143 | 3.33° C | 83% | 1014.2 hPa | 0 mm | - | 0 W/m² | - |
| 1778146840 | 3.89° C | 82% | 1013.9 hPa | 0 mm | - | 0 W/m² | - |
| 1778146537 | 3.89° C | 81% | 1013.9 hPa | 0 mm | - | 0 W/m² | - |
| 1778146236 | 3.89° C | 80% | 1014.1 hPa | 0 mm | - | 0 W/m² | - |
| 1778145932 | 3.89° C | 80% | 1014.1 hPa | 0 mm | - | 0 W/m² | - |
| 1778145629 | 4.44° C | 79% | 1014.2 hPa | 0 mm | - | 0 W/m² | - |
| 1778145326 | 4.44° C | 77% | 1014.2 hPa | 0 mm | - | 0 W/m² | - |
| 1778145022 | 5° C | 77% | 1014 hPa | 0 mm | - | 0 W/m² | - |
| 1778144718 | 4.44° C | 77% | 1014 hPa | 0 mm | - | 0 W/m² | - |
| 1778144415 | 5° C | 77% | 1014.2 hPa | 0 mm | - | 0 W/m² | - |
| 1778144112 | 5° C | 77% | 1014 hPa | 0 mm | - | 0 W/m² | - |
| 1778143808 | 5° C | 78% | 1014.3 hPa | 0 mm | - | 0 W/m² | - |
| 1778143505 | 5° C | 78% | 1014.1 hPa | 0 mm | - | 0 W/m² | - |
| 1778143202 | 5° C | 78% | 1014.1 hPa | 0 mm | - | 0 W/m² | - |
| 1778142898 | 5° C | 77% | 1013.8 hPa | 0 mm | - | 0 W/m² | - |
| 1778142595 | 5° C | 76% | 1014.1 hPa | 0 mm | - | 0 W/m² | - |
| 1778142291 | 5° C | 76% | 1014 hPa | 0 mm | - | 0 W/m² | - |
| 1778141988 | 5° C | 76% | 1014 hPa | 0 mm | - | 0 W/m² | - |
| 1778141684 | 5° C | 75% | 1014.1 hPa | 0 mm | - | 0 W/m² | - |
| 1778141381 | 5.56° C | 74% | 1013.9 hPa | 0 mm | - | 0 W/m² | - |
| 1778141077 | 5.56° C | 76% | 1014.2 hPa | 0 mm | - | 0 W/m² | - |
| 1778140772 | 5.56° C | 74% | 1014 hPa | 0 mm | - | 0 W/m² | - |
| 1778140469 | 5.56° C | 74% | 1014.2 hPa | 0 mm | - | 0 W/m² | - |
| 1778140166 | 6.11° C | 74% | 1013.9 hPa | 0 mm | - | 0 W/m² | - |
* Rain latest hour (hover to see other rain measurements)
** Current wind speed in m/s (hover to see current wind gust speed)